Change the Weather History Date:

Monday, October 29, 2012

  Actual Average Record
Temperature  
Mean Temperature 49 °F -  
Max Temperature 56 °F 51 °F 64 °F (2005)
Min Temperature 42 °F 38 °F 26 °F (1997)
Degree Days  
Heating Degree Days 16    
Moisture  
Dew Point 47 °F    
Average Humidity 89    
Maximum Humidity 100    
Minimum Humidity 76    
Precipitation  
Precipitation 0.08 in 0.11 in - ()
Sea Level Pressure  
Sea Level Pressure 29.78 in    
Wind  
Wind Speed 7 mph ()    
Max Wind Speed 17 mph    
Max Gust Speed -    
Visibility 7.0 miles    
Events Fog , Rain    
Averages and records for this station are not official NWS values.
T = Trace of Precipitation, MM = Missing Value Source: Averaged Metar Reports

Daily Weather History Graph

Daily Weather History Graph

Search for Another Location

Airport or City:

Trip Planner

Search our weather history database for the weather conditions in past years. The results will help you decide how hot, cold, wet, or windy it might be!

Date:

Astronomy

Oct. 29, 2012 Rise Set
Actual Time 6:54 AM GMT 4:46 PM GMT
Civil Twilight 6:20 AM GMT 5:21 PM GMT
Nautical Twilight 5:41 AM GMT 5:59 PM GMT
Astronomical Twilight 5:03 AM GMT 6:37 PM GMT
Moon 4:26 PM GMT (10/29) 6:32 AM GMT (10/29)
Length of Visible Light 11h 01m
Length of Day
9h 52m
Full, 100% of the Moon is Illuminated
Oct 29
Full
Oct 29
Full
Nov 7
Last Quarter
Nov 13
New
Nov 20
First Quarter

Hourly Weather History & Observations

Time (GMT) Temp. Windchill Dew Point Humidity Pressure Visibility Wind Dir Wind Speed Gust Speed Precip Events Conditions
4:50 AM 50.0 °F - 44.6 °F 82% 29.80 in - WSW 10.4 mph - N/A   Clear
5:20 AM 50.0 °F - 44.6 °F 82% 29.80 in 6.2 mi WSW 8.1 mph - N/A   Scattered Clouds
5:50 AM 49 °F - 45 °F 82% 29.82 in 16 mi WSW 6.9 mph - - Rain Rain
5:50 AM 50.0 °F - 44.6 °F 82% 29.80 in - WSW 8.1 mph - N/A   Clear
6:20 AM 50.0 °F - 46.4 °F 87% 29.80 in - WSW 6.9 mph - N/A   Clear
6:50 AM 50.0 °F - 46.4 °F 87% 29.80 in 6.2 mi SW 5.8 mph - N/A   Mostly Cloudy
7:20 AM 50.0 °F - 46.4 °F 87% 29.80 in 4.3 mi SW 8.1 mph - N/A Rain Light Rain Showers
7:50 AM 50.0 °F - 46.4 °F 87% 29.80 in 4.3 mi SW 6.9 mph - N/A Rain Light Rain Showers
8:20 AM 50.0 °F - 48.2 °F 94% 29.80 in 6.2 mi WSW 5.8 mph - N/A   Mostly Cloudy
8:50 AM 50 °F - 48 °F 89% 29.82 in 13 mi SW 6.9 mph - - Rain Rain
8:50 AM 50.0 °F - 48.2 °F 94% 29.80 in 6.2 mi WSW 8.1 mph - N/A   Scattered Clouds
9:50 AM 50.0 °F - 48.2 °F 94% 29.80 in 6.2 mi WSW 8.1 mph - N/A   Scattered Clouds
10:20 AM 53.6 °F - 48.2 °F 82% 29.80 in 6.2 mi WSW 12.7 mph - N/A   Scattered Clouds
10:50 AM 53.6 °F - 48.2 °F 82% 29.80 in 6.2 mi WSW 12.7 mph - N/A   Mostly Cloudy
11:50 AM 54 °F - 49 °F 76% 29.81 in 17 mi WSW 11.5 mph - - Rain Light Rain
11:50 AM 53.6 °F - 50.0 °F 88% 29.80 in 6.2 mi WSW 12.7 mph - N/A Rain Light Rain Showers
12:50 PM 53.6 °F - 50.0 °F 88% 29.77 in 5.6 mi WSW 13.8 mph - N/A Rain Light Rain Showers
1:20 PM 55.4 °F - 48.2 °F 77% 29.77 in 6.2 mi WSW 17.3 mph - N/A   Mostly Cloudy
1:50 PM 53.6 °F - 50.0 °F 88% 29.77 in 6.2 mi West 12.7 mph - N/A   Mostly Cloudy
2:20 PM 53.6 °F - 50.0 °F 88% 29.77 in 6.2 mi WSW 11.5 mph - N/A   Scattered Clouds
2:50 PM 53 °F - 50 °F 84% 29.79 in 19 mi WSW 11.5 mph - - Rain Rain
2:50 PM 51.8 °F - 48.2 °F 88% 29.77 in 6.2 mi WSW 12.7 mph - N/A   Scattered Clouds
3:20 PM 53.6 °F - 48.2 °F 82% 29.77 in 6.2 mi WSW 10.4 mph - N/A   Scattered Clouds
3:50 PM 51.8 °F - 50.0 °F 94% 29.77 in 6.2 mi WSW 8.1 mph - N/A Rain Light Rain Showers
4:20 PM 51.8 °F - 48.2 °F 88% 29.77 in 6.2 mi WSW 10.4 mph - N/A   Mostly Cloudy
4:50 PM 51.8 °F - 48.2 °F 88% 29.77 in 6.2 mi West 8.1 mph - N/A   Mostly Cloudy
5:20 PM 50.0 °F - 48.2 °F 94% 29.77 in 6.2 mi West 6.9 mph - N/A   Mostly Cloudy
5:50 PM 49 °F - 47 °F 88% 29.78 in 14 mi West 4.6 mph - - Rain Rain
5:50 PM 48.2 °F - 46.4 °F 93% 29.77 in 6.2 mi West 4.6 mph - N/A   Mostly Cloudy
6:20 PM 48.2 °F - 46.4 °F 93% 29.77 in 6.2 mi West 5.8 mph - N/A   Mostly Cloudy
6:50 PM 48.2 °F - 46.4 °F 93% 29.77 in 6.2 mi West 6.9 mph - N/A   Partly Cloudy
7:20 PM 46.4 °F 45.2 °F 44.6 °F 93% 29.77 in 6.2 mi West 3.5 mph - N/A   Partly Cloudy
7:50 PM 46.4 °F - 46.4 °F 100% 29.77 in 6.2 mi West 1.2 mph - N/A Fog Shallow Fog
8:20 PM 46.4 °F - 46.4 °F 100% 29.77 in 0.6 mi West 2.3 mph - N/A Fog Fog
8:50 PM 42 °F - 41 °F 97% 29.79 in 0 mi WSW 3.5 mph - - Fog Fog
8:50 PM 44.6 °F 42.2 °F 42.8 °F 93% 29.77 in 6.2 mi SW 4.6 mph - N/A Fog Shallow Fog
9:20 PM 44.6 °F - 44.6 °F 100% 29.77 in 6.2 mi West 2.3 mph - N/A Fog Shallow Fog
9:50 PM 44.6 °F 40.7 °F 44.6 °F 100% 29.77 in 6.2 mi SW 6.9 mph - N/A Fog Shallow Fog
10:20 PM 44.6 °F - 42.8 °F 93% 29.77 in 6.2 mi WNW 2.3 mph - N/A   Partly Cloudy
10:50 PM 44.6 °F - 42.8 °F 93% 29.77 in 6.2 mi North 2.3 mph - N/A   Partly Cloudy
11:50 PM 44 °F - 43 °F 96% 29.78 in 5 mi WNW 3.5 mph - -   Mist